Weather in Karatobe

Kazakhstan     49°41′28″N   53°30′18″E
temp.,
°C
wind,
m/s
gust,
m/s
humid.,
%
clouds,
%
prec.,
mm/h
press.,
hPa
HPBL,
m
29 july, thu
thu2923:00+24nne612280 0.0 1013448
02:00+21ne410350 0.0 1013250
05:00+19nne47350 0.0 1013112
08:00+21ne353022 0.0 1015236
11:00+26ne452386 0.0 10151264
14:00+28n34245 0.0 10142473
17:00+30nnw24203 0.0 10132707
20:00+29ese112112 0.0 1012882
30 july, fri
fri3023:00+26sse472586 0.0 1013127
02:00+24sse51124100 0.0 1013254
05:00+24s5112092 0.0 1013381
08:00+25ssw5102292 0.0 1013358
11:00+30sw8112284 0.0 10121302
14:00+34wsw991836 0.0 10112849
17:00+35wsw891776 0.0 10093752
20:00+33w472058 0.0 1009335
31 july, sat
sat3123:00+29nw122789 0.0 101025
02:00+29sw482547 0.0 1010170
05:00+25sw4102914 0.0 1010187
08:00+29sw4102514 0.0 1011373
11:00+34wsw56178 0.0 10111313
14:00+36sw77135 0.0 10103406
17:00+37sw67125 0.0 10103667
20:00+35wsw57124 0.0 1010265
1 august, sun
sun123:00+29w441649 0.0 101041
02:00+27w33169 0.0 101116
05:00+25wsw221710 0.0 101111
08:00+28ssw3517100 0.0 1011160
11:00+34wsw451261 0.0 1012949
14:00+37wnw44175 0.0 10113078
17:00+37nw552314 0.0 10103202
20:00+35nw66265 0.0 10101063
2 august, mon
mon223:00+30nne493212 0.0 1011195
02:00+28ne512276 0.0 1012282
05:00+26ne473161 0.0 1013135
08:00+28ne463036 0.0 1013201
11:00+33ne432227 0.0 10131311
14:00+36nne32172 0.0 10122802
17:00+37nne33140 0.0 10123004
20:00+35ne45170 0.0 1012220